Time,TemperatureF,DewpointF,PressureIn,WindDirection,WindDirectionDegrees,WindSpeedMPH,WindSpeedGustMPH,Humidity,HourlyPrecipIn,Conditions,Clouds,dailyrainin,SoftwareType,DateUTC
2013-07-07 00:03:00,72.0,72.0,29.92,NNE,28,14.0,-999.0,100,-99.99,,,0.00,weatherlink.com 1.10,2013-07-06 21:03:00,
2013-07-07 00:33:00,71.8,72.0,29.91,NE,41,10.0,-999.0,100,-99.99,,,0.00,weatherlink.com 1.10,2013-07-06 21:33:00,
2013-07-07 01:03:00,71.5,72.0,29.92,East,85,11.0,-999.0,100,-99.99,,,0.00,weatherlink.com 1.10,2013-07-06 22:03:00,
2013-07-07 01:18:00,71.5,72.0,29.93,NE,54,5.0,-999.0,100,-99.99,,,0.00,weatherlink.com 1.10,2013-07-06 22:18:00,
2013-07-07 01:48:00,71.5,72.0,29.94,ENE,72,6.0,-999.0,100,-99.99,,,0.00,weatherlink.com 1.10,2013-07-06 22:48:00,
2013-07-07 02:03:00,71.5,72.0,29.94,NE,44,8.0,-999.0,100,-99.99,,,0.00,weatherlink.com 1.10,2013-07-06 23:03:00,
2013-07-07 02:33:00,71.3,71.0,29.94,NE,37,10.0,-999.0,100,-99.99,,,0.00,weatherlink.com 1.10,2013-07-06 23:33:00,
2013-07-07 02:48:00,71.3,71.0,29.94,NNE,24,11.0,-999.0,100,-99.99,,,0.00,weatherlink.com 1.10,2013-07-06 23:48:00,
2013-07-07 03:19:00,71.3,71.0,29.94,NNE,23,7.0,-999.0,100,-99.99,,,0.00,weatherlink.com 1.10,2013-07-07 00:19:00,
2013-07-07 03:49:00,71.5,72.0,29.94,NNE,32,8.0,-999.0,100,-99.99,,,0.00,weatherlink.com 1.10,2013-07-07 00:49:00,
2013-07-07 04:04:00,71.3,71.0,29.95,NE,48,5.0,-999.0,100,-99.99,,,0.00,weatherlink.com 1.10,2013-07-07 01:04:00,
2013-07-07 04:34:00,71.1,71.0,29.95,NNE,28,8.0,-999.0,100,-99.99,,,0.00,weatherlink.com 1.10,2013-07-07 01:34:00,
2013-07-07 04:49:00,71.1,71.0,29.94,NNE,17,12.0,-999.0,100,-99.99,,,0.00,weatherlink.com 1.10,2013-07-07 01:49:00,
2013-07-07 05:34:00,71.3,71.0,29.95,NNE,17,11.0,-999.0,100,-99.99,,,0.00,weatherlink.com 1.10,2013-07-07 02:34:00,
2013-07-07 05:49:00,71.3,71.0,29.95,NE,38,5.0,-999.0,100,-99.99,,,0.00,weatherlink.com 1.10,2013-07-07 02:49:00,
2013-07-07 06:34:00,71.1,71.0,29.93,NE,45,5.0,-999.0,100,-99.99,,,0.00,weatherlink.com 1.10,2013-07-07 03:34:00,
2013-07-07 07:04:00,71.5,72.0,29.93,NNE,16,14.0,-999.0,100,-99.99,,,0.00,weatherlink.com 1.10,2013-07-07 04:04:00,
2013-07-07 07:19:00,71.5,72.0,29.93,North,11,5.0,-999.0,100,-99.99,,,0.00,weatherlink.com 1.10,2013-07-07 04:19:00,
2013-07-07 07:34:00,71.6,72.0,29.93,ENE,58,10.0,-999.0,100,-99.99,,,0.00,weatherlink.com 1.10,2013-07-07 04:34:00,
2013-07-07 07:49:00,72.0,72.0,29.94,NE,45,10.0,-999.0,100,-99.99,,,0.00,weatherlink.com 1.10,2013-07-07 04:49:00,
2013-07-07 08:04:00,72.5,73.0,29.94,NE,40,5.0,-999.0,100,-99.99,,,0.00,weatherlink.com 1.10,2013-07-07 05:04:00,
2013-07-07 08:19:00,72.8,73.0,29.94,NNE,24,13.0,-999.0,100,-99.99,,,0.00,weatherlink.com 1.10,2013-07-07 05:19:00,
2013-07-07 08:34:00,73.3,73.0,29.95,NNE,20,8.0,-999.0,100,-99.99,,,0.00,weatherlink.com 1.10,2013-07-07 05:34:00,
2013-07-07 08:49:00,74.2,74.0,29.95,NNE,16,11.0,-999.0,100,-99.99,,,0.00,weatherlink.com 1.10,2013-07-07 05:49:00,
2013-07-07 09:04:00,74.4,74.0,29.95,NE,38,10.0,-999.0,100,-99.99,,,0.00,weatherlink.com 1.10,2013-07-07 06:04:00,
2013-07-07 09:19:00,74.9,75.0,29.95,NE,44,10.0,-999.0,100,-99.99,,,0.00,weatherlink.com 1.10,2013-07-07 06:19:00,
2013-07-07 09:34:00,75.6,76.0,29.95,North,4,5.0,-999.0,100,-99.99,,,0.00,weatherlink.com 1.10,2013-07-07 06:34:00,
2013-07-07 09:49:00,76.3,76.0,29.95,NNE,28,10.0,-999.0,100,-99.99,,,0.00,weatherlink.com 1.10,2013-07-07 06:49:00,
2013-07-07 10:04:00,76.1,76.0,29.96,North,11,7.0,-999.0,100,-99.99,,,0.00,weatherlink.com 1.10,2013-07-07 07:04:00,
2013-07-07 10:19:00,76.3,76.0,29.96,NE,35,12.0,-999.0,100,-99.99,,,0.00,weatherlink.com 1.10,2013-07-07 07:19:00,
2013-07-07 10:34:00,76.1,76.0,29.96,NNE,27,11.0,-999.0,100,-99.99,,,0.00,weatherlink.com 1.10,2013-07-07 07:34:00,
2013-07-07 10:49:00,76.5,77.0,29.96,NNE,30,7.0,-999.0,100,-99.99,,,0.00,weatherlink.com 1.10,2013-07-07 07:49:00,
2013-07-07 11:05:00,76.0,76.0,29.96,NE,45,11.0,-999.0,100,-99.99,,,0.00,weatherlink.com 1.10,2013-07-07 08:05:00,
2013-07-07 11:20:00,75.6,76.0,29.97,NNE,27,8.0,-999.0,100,-99.99,,,0.00,weatherlink.com 1.10,2013-07-07 08:20:00,
2013-07-07 11:35:00,75.8,76.0,29.97,NE,38,11.0,-999.0,100,-99.99,,,0.00,weatherlink.com 1.10,2013-07-07 08:35:00,
2013-07-07 11:50:00,75.6,76.0,29.97,NNE,17,13.0,-999.0,100,-99.99,,,0.00,weatherlink.com 1.10,2013-07-07 08:50:00,
2013-07-07 12:05:00,75.6,76.0,29.97,North,1,6.0,-999.0,100,-99.99,,,0.00,weatherlink.com 1.10,2013-07-07 09:05:00,
2013-07-07 12:20:00,75.8,76.0,29.97,North,11,8.0,-999.0,100,-99.99,,,0.00,weatherlink.com 1.10,2013-07-07 09:20:00,
2013-07-07 12:35:00,76.1,76.0,29.97,NNE,28,10.0,-999.0,100,-99.99,,,0.00,weatherlink.com 1.10,2013-07-07 09:35:00,
2013-07-07 12:50:00,75.6,76.0,29.97,NNE,16,10.0,-999.0,100,-99.99,,,0.00,weatherlink.com 1.10,2013-07-07 09:50:00,
2013-07-07 13:05:00,76.1,76.0,29.97,North,1,17.0,-999.0,100,-99.99,,,0.00,weatherlink.com 1.10,2013-07-07 10:05:00,
2013-07-07 13:20:00,76.1,76.0,29.97,North,359,16.0,-999.0,100,-99.99,,,0.00,weatherlink.com 1.10,2013-07-07 10:20:00,
2013-07-07 13:35:00,76.8,77.0,29.97,North,8,14.0,-999.0,100,-99.99,,,0.00,weatherlink.com 1.10,2013-07-07 10:35:00,
2013-07-07 13:50:00,77.2,77.0,29.97,North,8,13.0,-999.0,100,-99.99,,,0.00,weatherlink.com 1.10,2013-07-07 10:50:00,
2013-07-07 14:05:00,77.0,77.0,29.98,North,357,9.0,-999.0,100,-99.99,,,0.00,weatherlink.com 1.10,2013-07-07 11:05:00,
2013-07-07 14:20:00,77.6,78.0,29.98,NNE,17,11.0,-999.0,100,-99.99,,,0.00,weatherlink.com 1.10,2013-07-07 11:20:00,
2013-07-07 14:35:00,77.6,78.0,29.98,ENE,59,11.0,-999.0,100,-99.99,,,0.00,weatherlink.com 1.10,2013-07-07 11:35:00,
2013-07-07 14:50:00,77.4,77.0,29.98,NNE,25,8.0,-999.0,100,-99.99,,,0.00,weatherlink.com 1.10,2013-07-07 11:50:00,
2013-07-07 15:05:00,77.6,78.0,29.97,North,1,14.0,-999.0,100,-99.99,,,0.00,weatherlink.com 1.10,2013-07-07 12:05:00,
2013-07-07 15:20:00,77.6,78.0,29.97,North,11,18.0,-999.0,100,-99.99,,,0.00,weatherlink.com 1.10,2013-07-07 12:20:00,
2013-07-07 15:35:00,77.4,77.0,29.97,NE,34,17.0,-999.0,100,-99.99,,,0.00,weatherlink.com 1.10,2013-07-07 12:35:00,
2013-07-07 15:50:00,77.0,77.0,29.97,NNE,21,17.0,-999.0,100,-99.99,,,0.00,weatherlink.com 1.10,2013-07-07 12:50:00,
2013-07-07 16:05:00,77.2,77.0,29.97,NNE,17,14.0,-999.0,100,-99.99,,,0.00,weatherlink.com 1.10,2013-07-07 13:05:00,
2013-07-07 16:20:00,77.2,77.0,29.96,NNE,17,13.0,-999.0,100,-99.99,,,0.00,weatherlink.com 1.10,2013-07-07 13:20:00,
2013-07-07 16:35:00,76.5,77.0,29.96,NNE,18,8.0,-999.0,100,-99.99,,,0.00,weatherlink.com 1.10,2013-07-07 13:35:00,
2013-07-07 16:50:00,76.5,77.0,29.97,NNE,25,13.0,-999.0,100,-99.99,,,0.00,weatherlink.com 1.10,2013-07-07 13:50:00,
2013-07-07 17:05:00,76.3,76.0,29.96,NNE,24,15.0,-999.0,100,-99.99,,,0.00,weatherlink.com 1.10,2013-07-07 14:05:00,
2013-07-07 17:20:00,76.0,76.0,29.96,NE,40,10.0,-999.0,100,-99.99,,,0.00,weatherlink.com 1.10,2013-07-07 14:20:00,
2013-07-07 17:35:00,76.0,76.0,29.96,NNE,32,12.0,-999.0,100,-99.99,,,0.00,weatherlink.com 1.10,2013-07-07 14:35:00,
2013-07-07 17:50:00,76.1,76.0,29.96,NE,37,14.0,-999.0,100,-99.99,,,0.00,weatherlink.com 1.10,2013-07-07 14:50:00,
2013-07-07 18:05:00,76.3,76.0,29.95,NE,34,7.0,-999.0,100,-99.99,,,0.00,weatherlink.com 1.10,2013-07-07 15:05:00,
2013-07-07 18:20:00,76.0,76.0,29.95,NNE,28,6.0,-999.0,100,-99.99,,,0.00,weatherlink.com 1.10,2013-07-07 15:20:00,
2013-07-07 18:35:00,75.3,75.0,29.95,NNE,27,16.0,-999.0,100,-99.99,,,0.00,weatherlink.com 1.10,2013-07-07 15:35:00,
2013-07-07 18:50:00,74.7,75.0,29.96,NE,34,13.0,-999.0,100,-99.99,,,0.00,weatherlink.com 1.10,2013-07-07 15:50:00,
2013-07-07 19:05:00,74.4,74.0,29.96,NE,37,7.0,-999.0,100,-99.99,,,0.00,weatherlink.com 1.10,2013-07-07 16:05:00,
2013-07-07 19:20:00,74.2,74.0,29.96,NNE,25,13.0,-999.0,100,-99.99,,,0.00,weatherlink.com 1.10,2013-07-07 16:20:00,
2013-07-07 19:35:00,74.0,74.0,29.96,North,10,10.0,-999.0,100,-99.99,,,0.00,weatherlink.com 1.10,2013-07-07 16:35:00,
2013-07-07 19:50:00,73.5,74.0,29.96,North,3,7.0,-999.0,100,-99.99,,,0.00,weatherlink.com 1.10,2013-07-07 16:50:00,
2013-07-07 20:05:00,73.0,73.0,29.97,North,1,6.0,-999.0,100,-99.99,,,0.00,weatherlink.com 1.10,2013-07-07 17:05:00,
2013-07-07 20:20:00,72.8,73.0,29.97,NNE,17,7.0,-999.0,100,-99.99,,,0.00,weatherlink.com 1.10,2013-07-07 17:20:00,
2013-07-07 20:35:00,72.7,73.0,29.97,NNE,30,7.0,-999.0,100,-99.99,,,0.00,weatherlink.com 1.10,2013-07-07 17:35:00,
2013-07-07 20:50:00,72.3,72.0,29.97,NE,37,6.0,-999.0,100,-99.99,,,0.00,weatherlink.com 1.10,2013-07-07 17:50:00,
2013-07-07 21:05:00,72.1,72.0,29.97,NNE,30,7.0,-999.0,100,-99.99,,,0.00,weatherlink.com 1.10,2013-07-07 18:05:00,
2013-07-07 21:20:00,72.0,72.0,29.98,NNE,18,6.0,-999.0,100,-99.99,,,0.00,weatherlink.com 1.10,2013-07-07 18:20:00,
2013-07-07 21:35:00,71.8,72.0,29.98,North,8,5.0,-999.0,100,-99.99,,,0.00,weatherlink.com 1.10,2013-07-07 18:35:00,
2013-07-07 21:50:00,71.8,72.0,29.98,NNE,30,7.0,-999.0,100,-99.99,,,0.00,weatherlink.com 1.10,2013-07-07 18:50:00,
2013-07-07 22:05:00,71.5,72.0,29.99,North,11,7.0,-999.0,100,-99.99,,,0.00,weatherlink.com 1.10,2013-07-07 19:05:00,
2013-07-07 22:20:00,71.5,72.0,29.99,NNE,25,7.0,-999.0,100,-99.99,,,0.00,weatherlink.com 1.10,2013-07-07 19:20:00,
2013-07-07 22:35:00,71.3,71.0,29.99,NNE,17,13.0,-999.0,100,-99.99,,,0.00,weatherlink.com 1.10,2013-07-07 19:35:00,
2013-07-07 22:50:00,71.1,71.0,29.99,NNE,27,7.0,-999.0,100,-99.99,,,0.00,weatherlink.com 1.10,2013-07-07 19:50:00,
2013-07-07 23:05:00,71.1,71.0,29.99,North,1,8.0,-999.0,100,-99.99,,,0.00,weatherlink.com 1.10,2013-07-07 20:05:00,
2013-07-07 23:20:00,71.1,71.0,29.99,NE,35,5.0,-999.0,100,-99.99,,,0.00,weatherlink.com 1.10,2013-07-07 20:20:00,
2013-07-07 23:35:00,70.9,71.0,29.99,North,4,5.0,-999.0,100,-99.99,,,0.00,weatherlink.com 1.10,2013-07-07 20:35:00,
2013-07-07 23:50:00,70.9,71.0,29.99,NNE,20,10.0,-999.0,100,-99.99,,,0.00,weatherlink.com 1.10,2013-07-07 20:50:00,